Flag for Germany Weather past 2 weeks in Neumünster, Schleswig-Holstein, Germany

Now
57 °F

Overcast.


Feels Like: 56 °F
Forecast: 44 / 60 °F
Wind: 7 mph from Northwest

Location: Itzehoe

Current Time: Sep 22, 2014 at 5:10:49 PM

Latest Report: Sep 22, 2014 at 4:00 PM


Visibility: 28 mi

Pressure: 29.97 "Hg

Humidity: 57%

Dew point: 42 °F

Location of NeumünsterLocation

Historic Weather in Neumünster — Graph

°F

Neumünster temperature yesterday

Maximum temperature yesterday: 64 °F (at 1:00 PM)
Minimum temperature yesterday: 56 °F (at 9:00 PM)
Average temperature yesterday: 60 °F

Past Weeks' High & Low Weather Summary

 TemperatureHumidityPressure
High74 °F (Sep 19, 4:00 PM)100% (Sep 8, 4:00 AM)30.28 "Hg (Sep 8, 4:00 AM)
Low48 °F (Sep 9, 12:00 AM)49% (Sep 17, 1:00 PM)29.84 "Hg (Sep 22, 6:00 AM)
Average61 °F81%30.05 "Hg
* Reported Sep 7 4:00 PM — Sep 22 4:00 PM, Neumünster, Weather by CustomWeather, © 2014

Note: Actual official high and low records may vary slightly from our data, if they occured in-between our weather recording intervals... More about our weather records

Advertising

Neumünster weather history for previous 24 hours

 ConditionsComfort  
Time TempWeatherWind HumidityBarometerVisibility
4:00 PM
Sep 22
57 °FOvercast.7 mph57%29.97 "Hg28 mi
3:00 PM56 °FOvercast.8 mph55%29.96 "Hg28 mi
1:00 PM56 °FOvercast.8 mph55%29.94 "Hg25 mi
12:00 PM56 °FScattered clouds.9 mph52%29.93 "Hg22 mi
11:00 AM54 °FPassing clouds.8 mph62%29.92 "Hg15 mi
10:00 AM52 °FSunny.7 mph67%29.90 "Hg11 mi
9:00 AM50 °FSunny.6 mph72%29.88 "Hg22 mi
7:00 AM53 °FOvercast.7 mph66%29.84 "Hg16 mi
6:00 AM54 °FPassing clouds.3 mph72%29.84 "Hg9 mi
5:00 AM55 °FOvercast.5 mph75%29.85 "Hg6 mi
4:00 AM56 °FOvercast.5 mph65%29.87 "Hg9 mi
3:00 AM55 °FPassing clouds.3 mph76%29.89 "Hg7 mi
2:00 AM54 °FPassing clouds.2 mph75%29.89 "Hg8 mi
1:00 AM55 °FClear.6 mph71%29.91 "Hg8 mi
12:00 AM57 °FOvercast.6 mph70%29.91 "Hg9 mi
10:00 PM
Sep 21
58 °FOvercast.8 mph78%29.90 "Hg9 mi
9:00 PM56 °FPassing clouds.2 mph84%29.90 "Hg17 mi
7:00 PM58 °FPassing clouds.5 mph72%29.90 "Hg8 mi
6:00 PM60 °FScattered clouds.6 mph68%29.91 "Hg9 mi
5:00 PM61 °FPassing clouds.7 mph65%29.91 "Hg8 mi
Weather by CustomWeather, © 2014

See weather overviewHow to use our weather pages